Time,TemperatureF,DewpointF,PressureIn,WindDirection,WindDirectionDegrees,WindSpeedMPH,WindSpeedGustMPH,Humidity,HourlyPrecipIn,Conditions,Clouds,dailyrainin,SoftwareType,DateUTC
2013-07-02 00:04:00,83.0,57.0,29.93,SW,215,0.0,0.0,41,0.00,,,0.00,weatherlink.com 1.10,2013-07-02 07:04:00,
2013-07-02 00:19:00,83.1,57.0,29.93,ESE,122,0.0,0.0,41,0.00,,,0.00,weatherlink.com 1.10,2013-07-02 07:19:00,
2013-07-02 00:34:00,82.7,57.0,29.93,ESE,122,0.0,0.0,42,0.00,,,0.00,weatherlink.com 1.10,2013-07-02 07:34:00,
2013-07-02 00:49:00,82.5,57.0,29.93,ESE,117,0.0,1.0,42,0.00,,,0.00,weatherlink.com 1.10,2013-07-02 07:49:00,
2013-07-02 01:04:00,82.3,58.0,29.93,SE,140,0.0,0.0,43,0.00,,,0.00,weatherlink.com 1.10,2013-07-02 08:04:00,
2013-07-02 01:19:00,81.6,58.0,29.93,SE,140,0.0,0.0,45,0.00,,,0.00,weatherlink.com 1.10,2013-07-02 08:19:00,
2013-07-02 01:34:00,81.2,58.0,29.93,SSE,150,1.0,1.0,46,0.00,,,0.00,weatherlink.com 1.10,2013-07-02 08:34:00,
2013-07-02 01:49:00,80.3,58.0,29.92,SSE,147,0.0,2.0,47,0.00,,,0.00,weatherlink.com 1.10,2013-07-02 08:49:00,
2013-07-02 02:04:00,80.2,59.0,29.92,SSE,159,0.0,2.0,48,0.00,,,0.00,weatherlink.com 1.10,2013-07-02 09:04:00,
2013-07-02 02:19:00,80.2,58.0,29.92,East,97,2.0,2.0,47,0.00,,,0.00,weatherlink.com 1.10,2013-07-02 09:19:00,
2013-07-02 02:34:00,80.4,59.0,29.92,SSE,164,0.0,2.0,48,0.00,,,0.00,weatherlink.com 1.10,2013-07-02 09:34:00,
2013-07-02 02:49:00,80.7,59.0,29.91,SSE,150,1.0,4.0,48,0.00,,,0.00,weatherlink.com 1.10,2013-07-02 09:49:00,
2013-07-02 03:04:00,80.7,59.0,29.91,SSW,205,1.0,3.0,48,0.00,,,0.00,weatherlink.com 1.10,2013-07-02 10:04:00,
2013-07-02 03:19:00,81.2,59.0,29.91,ESE,118,2.0,2.0,47,0.00,,,0.00,weatherlink.com 1.10,2013-07-02 10:19:00,
2013-07-02 03:34:00,81.5,59.0,29.91,SSW,210,1.0,2.0,47,0.00,,,0.00,weatherlink.com 1.10,2013-07-02 10:34:00,
2013-07-02 03:49:00,81.2,60.0,29.91,SSW,207,0.0,2.0,48,0.00,,,0.00,weatherlink.com 1.10,2013-07-02 10:49:00,
2013-07-02 04:04:00,81.2,60.0,29.90,ESE,120,2.0,3.0,48,0.00,,,0.00,weatherlink.com 1.10,2013-07-02 11:04:00,
2013-07-02 04:19:00,81.3,59.0,29.90,South,169,2.0,3.0,47,0.00,,,0.00,weatherlink.com 1.10,2013-07-02 11:19:00,
2013-07-02 04:34:00,80.1,59.0,29.91,SSE,161,1.0,2.0,49,0.00,,,0.00,weatherlink.com 1.10,2013-07-02 11:34:00,
2013-07-02 04:50:00,79.0,59.0,29.90,SSW,211,0.0,2.0,50,0.00,,,0.00,weatherlink.com 1.10,2013-07-02 11:50:00,
2013-07-02 05:05:00,78.2,59.0,29.90,SSE,163,0.0,2.0,51,0.00,,,0.00,weatherlink.com 1.10,2013-07-02 12:05:00,
2013-07-02 05:20:00,78.1,58.0,29.89,SSE,158,1.0,2.0,51,0.00,,,0.00,weatherlink.com 1.10,2013-07-02 12:20:00,
2013-07-02 05:35:00,78.4,58.0,29.89,SSE,148,3.0,4.0,50,0.00,,,0.00,weatherlink.com 1.10,2013-07-02 12:35:00,
2013-07-02 05:50:00,77.9,59.0,29.90,SSE,148,2.0,2.0,53,0.00,,,0.00,weatherlink.com 1.10,2013-07-02 12:50:00,
2013-07-02 06:05:00,76.9,59.0,29.90,SSE,162,1.0,2.0,55,0.00,,,0.00,weatherlink.com 1.10,2013-07-02 13:05:00,
2013-07-02 06:20:00,77.3,58.0,29.90,SSE,165,0.0,2.0,52,0.00,,,0.00,weatherlink.com 1.10,2013-07-02 13:20:00,
2013-07-02 06:35:00,77.8,59.0,29.91,SSE,167,0.0,1.0,52,0.00,,,0.00,weatherlink.com 1.10,2013-07-02 13:35:00,
2013-07-02 06:50:00,78.0,60.0,29.91,South,169,0.0,1.0,55,0.00,,,0.00,weatherlink.com 1.10,2013-07-02 13:50:00,
2013-07-02 07:05:00,77.6,61.0,29.91,SSW,212,0.0,1.0,56,0.00,,,0.00,weatherlink.com 1.10,2013-07-02 14:05:00,
2013-07-02 07:20:00,80.0,62.0,29.92,SSW,212,0.0,1.0,55,0.00,,,0.00,weatherlink.com 1.10,2013-07-02 14:20:00,
2013-07-02 07:35:00,84.5,61.0,29.92,WSW,246,0.0,3.0,46,0.00,,,0.00,weatherlink.com 1.10,2013-07-02 14:35:00,
2013-07-02 07:50:00,86.1,62.0,29.92,South,178,0.0,1.0,45,0.00,,,0.00,weatherlink.com 1.10,2013-07-02 14:50:00,
2013-07-02 08:05:00,89.3,62.0,29.92,NNE,18,0.0,1.0,40,0.00,,,0.00,weatherlink.com 1.10,2013-07-02 15:05:00,
2013-07-02 08:20:00,90.5,61.0,29.93,ESE,114,1.0,2.0,37,0.00,,,0.00,weatherlink.com 1.10,2013-07-02 15:20:00,
2013-07-02 08:35:00,92.8,61.0,29.93,North,4,1.0,2.0,35,0.00,,,0.00,weatherlink.com 1.10,2013-07-02 15:35:00,
2013-07-02 08:50:00,92.9,62.0,29.93,ENE,57,0.0,3.0,36,0.00,,,0.00,weatherlink.com 1.10,2013-07-02 15:50:00,
2013-07-02 09:05:00,93.8,61.0,29.93,SE,137,1.0,3.0,34,0.00,,,0.00,weatherlink.com 1.10,2013-07-02 16:05:00,
2013-07-02 09:20:00,96.0,62.0,29.93,NW,304,1.0,3.0,32,0.00,,,0.00,weatherlink.com 1.10,2013-07-02 16:20:00,
2013-07-02 09:35:00,96.3,61.0,29.93,ENE,66,2.0,3.0,31,0.00,,,0.00,weatherlink.com 1.10,2013-07-02 16:35:00,
2013-07-02 09:50:00,97.1,60.0,29.93,NNE,14,2.0,4.0,29,0.00,,,0.00,weatherlink.com 1.10,2013-07-02 16:50:00,
2013-07-02 10:05:00,97.5,58.0,29.93,North,356,0.0,4.0,27,0.00,,,0.00,weatherlink.com 1.10,2013-07-02 17:05:00,
2013-07-02 10:20:00,100.1,58.0,29.93,SSE,158,1.0,2.0,25,0.00,,,0.00,weatherlink.com 1.10,2013-07-02 17:20:00,
2013-07-02 10:35:00,100.3,62.0,29.94,ESE,117,3.0,3.0,28,0.00,,,0.00,weatherlink.com 1.10,2013-07-02 17:35:00,
2013-07-02 10:50:00,102.3,62.0,29.94,SE,141,1.0,2.0,27,0.00,,,0.00,weatherlink.com 1.10,2013-07-02 17:50:00,
2013-07-02 11:05:00,101.0,59.0,29.94,NE,51,2.0,3.0,25,0.00,,,0.00,weatherlink.com 1.10,2013-07-02 18:05:00,
2013-07-02 11:20:00,103.6,60.0,29.93,SE,124,2.0,3.0,24,0.00,,,0.00,weatherlink.com 1.10,2013-07-02 18:20:00,
2013-07-02 11:36:00,104.7,58.0,29.93,SE,145,2.0,5.0,21,0.00,,,0.00,weatherlink.com 1.10,2013-07-02 18:36:00,
2013-07-02 11:51:00,104.2,56.0,29.93,ENE,78,0.0,5.0,20,0.00,,,0.00,weatherlink.com 1.10,2013-07-02 18:51:00,
2013-07-02 12:06:00,105.6,54.0,29.93,SSW,204,1.0,5.0,18,0.00,,,0.00,weatherlink.com 1.10,2013-07-02 19:06:00,
2013-07-02 12:21:00,106.4,55.0,29.92,South,169,2.0,4.0,18,0.00,,,0.00,weatherlink.com 1.10,2013-07-02 19:21:00,
2013-07-02 12:36:00,107.4,56.0,29.92,SSE,153,2.0,4.0,18,0.00,,,0.00,weatherlink.com 1.10,2013-07-02 19:36:00,
2013-07-02 12:41:00,108.3,52.4,29.92,North,354,2.0,4.0,16,0.00,,,0.00,Wunderground v.1.15,2013-07-02 19:41:00,
2013-07-02 12:46:00,108.8,49.2,29.92,NNW,345,2.0,6.0,14,0.00,,,0.00,Wunderground v.1.15,2013-07-02 19:46:00,
2013-07-02 12:51:00,107.6,51.8,29.92,NNE,16,5.0,6.0,16,0.00,,,0.00,Wunderground v.1.15,2013-07-02 19:51:00,
2013-07-02 12:56:00,107.7,50.1,29.92,ESE,117,2.0,6.0,15,0.00,,,0.00,Wunderground v.1.15,2013-07-02 19:56:00,
2013-07-02 13:01:00,107.8,46.4,29.92,SW,229,1.0,2.0,13,0.00,,,0.00,Wunderground v.1.15,2013-07-02 20:01:00,
2013-07-02 13:06:00,108.3,44.7,29.92,ENE,63,1.0,4.0,12,0.00,,,0.00,Wunderground v.1.15,2013-07-02 20:06:00,
2013-07-02 13:12:00,109.2,49.5,29.92,SSW,210,2.0,2.0,14,0.00,,,0.00,Wunderground v.1.15,2013-07-02 20:12:00,
2013-07-02 13:17:00,109.1,51.2,29.92,North,351,3.0,6.0,15,0.00,,,0.00,Wunderground v.1.15,2013-07-02 20:17:00,
2013-07-02 13:22:00,108.4,48.8,29.92,North,354,2.0,6.0,14,0.00,,,0.00,Wunderground v.1.15,2013-07-02 20:22:00,
2013-07-02 13:27:00,108.3,44.7,29.92,NNE,18,3.0,6.0,12,0.00,,,0.00,Wunderground v.1.15,2013-07-02 20:27:00,
2013-07-02 13:32:00,107.7,46.3,29.92,NNE,29,2.0,3.0,13,0.00,,,0.00,Wunderground v.1.15,2013-07-02 20:32:00,
2013-07-02 13:37:00,108.2,48.7,29.92,NE,48,1.0,6.0,14,0.00,,,0.00,Wunderground v.1.15,2013-07-02 20:37:00,
2013-07-02 13:42:00,108.1,46.6,29.92,NNE,30,2.0,6.0,13,0.00,,,0.00,Wunderground v.1.15,2013-07-02 20:42:00,
2013-07-02 13:47:00,107.4,46.1,29.92,NE,34,3.0,6.0,13,0.00,,,0.00,Wunderground v.1.15,2013-07-02 20:47:00,
2013-07-02 13:52:00,107.9,48.4,29.92,NNE,18,3.0,3.0,14,0.00,,,0.00,Wunderground v.1.15,2013-07-02 20:52:00,
2013-07-02 13:57:00,108.4,42.5,29.91,East,88,2.0,5.0,11,0.00,,,0.00,Wunderground v.1.15,2013-07-02 20:57:00,
2013-07-02 14:02:00,108.9,47.2,29.91,NE,36,1.0,3.0,13,0.00,,,0.00,Wunderground v.1.15,2013-07-02 21:02:00,
2013-07-02 14:07:00,109.6,49.8,29.91,SSE,163,1.0,3.0,14,0.00,,,0.00,Wunderground v.1.15,2013-07-02 21:07:00,
2013-07-02 14:12:00,110.0,43.7,29.91,NNW,347,2.0,6.0,11,0.00,,,0.00,Wunderground v.1.15,2013-07-02 21:12:00,
2013-07-02 14:17:00,109.3,53.2,29.91,NE,37,3.0,6.0,16,0.00,,,0.00,Wunderground v.1.15,2013-07-02 21:17:00,
2013-07-02 14:18:00,109.3,53.2,29.91,NE,46,2.0,6.0,16,0.00,,,0.00,Wunderground v.1.15,2013-07-02 21:18:00,
2013-07-02 14:23:00,109.0,52.9,29.91,North,360,2.0,3.0,16,0.00,,,0.00,Wunderground v.1.15,2013-07-02 21:23:00,
2013-07-02 14:28:00,108.6,52.6,29.91,NE,43,2.0,4.0,16,0.00,,,0.00,Wunderground v.1.15,2013-07-02 21:28:00,
2013-07-02 14:33:00,108.2,53.9,29.91,North,8,1.0,5.0,17,0.00,,,0.00,Wunderground v.1.15,2013-07-02 21:33:00,
2013-07-02 14:38:00,108.7,54.3,29.90,North,6,2.0,5.0,17,0.00,,,0.00,Wunderground v.1.15,2013-07-02 21:38:00,
2013-07-02 14:43:00,109.6,55.1,29.91,SSE,160,0.0,8.0,17,0.00,,,0.00,Wunderground v.1.15,2013-07-02 21:43:00,
2013-07-02 14:48:00,109.8,55.2,29.91,East,79,5.0,8.0,17,0.00,,,0.00,Wunderground v.1.15,2013-07-02 21:48:00,
2013-07-02 14:53:00,109.0,54.6,29.90,NE,51,2.0,6.0,17,0.00,,,0.00,Wunderground v.1.15,2013-07-02 21:53:00,
2013-07-02 14:58:00,109.0,54.6,29.90,NNE,13,3.0,6.0,17,0.00,,,0.00,Wunderground v.1.15,2013-07-02 21:58:00,
2013-07-02 15:03:00,108.7,54.3,29.90,NNE,22,6.0,6.0,17,0.00,,,0.00,Wunderground v.1.15,2013-07-02 22:03:00,
2013-07-02 15:08:00,108.2,50.5,29.90,WNW,293,0.0,7.0,15,0.00,,,0.00,Wunderground v.1.15,2013-07-02 22:08:00,
2013-07-02 15:13:00,108.6,52.6,29.90,NE,35,2.0,4.0,16,0.00,,,0.00,Wunderground v.1.15,2013-07-02 22:13:00,
2013-07-02 15:18:00,108.9,52.8,29.90,NNW,345,1.0,4.0,16,0.00,,,0.00,Wunderground v.1.15,2013-07-02 22:18:00,
2013-07-02 15:23:00,109.4,51.5,29.90,East,84,1.0,3.0,15,0.00,,,0.00,Wunderground v.1.15,2013-07-02 22:23:00,
2013-07-02 15:28:00,109.9,53.6,29.89,SSW,212,0.0,5.0,16,0.00,,,0.00,Wunderground v.1.15,2013-07-02 22:28:00,
2013-07-02 15:33:00,110.5,52.3,29.89,ESE,105,1.0,3.0,15,0.00,,,0.00,Wunderground v.1.15,2013-07-02 22:33:00,
2013-07-02 15:38:00,110.3,52.2,29.89,East,92,1.0,4.0,15,0.00,,,0.00,Wunderground v.1.15,2013-07-02 22:38:00,
2013-07-02 15:43:00,109.9,56.9,29.89,ENE,68,6.0,12.0,18,0.00,,,0.00,Wunderground v.1.15,2013-07-02 22:43:00,
2013-07-02 15:48:00,109.2,60.6,29.89,SE,124,2.0,12.0,21,0.00,,,0.00,Wunderground v.1.15,2013-07-02 22:48:00,
2013-07-02 15:53:00,108.3,62.5,29.89,ESE,103,3.0,4.0,23,0.00,,,0.00,Wunderground v.1.15,2013-07-02 22:53:00,
2013-07-02 15:58:00,108.1,62.3,29.89,ENE,75,2.0,4.0,23,0.00,,,0.00,Wunderground v.1.15,2013-07-02 22:58:00,
2013-07-02 16:03:00,107.7,63.2,29.89,East,97,2.0,6.0,24,0.00,,,0.00,Wunderground v.1.15,2013-07-02 23:03:00,
2013-07-02 16:08:00,107.9,63.3,29.89,NNE,28,2.0,7.0,24,0.00,,,0.00,Wunderground v.1.15,2013-07-02 23:08:00,
2013-07-02 16:13:00,107.9,63.3,29.90,SE,141,2.0,5.0,24,0.00,,,0.00,Wunderground v.1.15,2013-07-02 23:13:00,
2013-07-02 16:18:00,107.5,63.0,29.90,ENE,75,2.0,6.0,24,0.00,,,0.00,Wunderground v.1.15,2013-07-02 23:18:00,
2013-07-02 16:23:00,107.3,64.0,29.90,SSW,195,2.0,5.0,25,0.00,,,0.00,Wunderground v.1.15,2013-07-02 23:23:00,
2013-07-02 16:28:00,106.7,64.6,29.90,ESE,114,2.0,5.0,26,0.00,,,0.00,Wunderground v.1.15,2013-07-02 23:28:00,
2013-07-02 16:29:00,106.5,64.4,29.90,East,94,2.0,5.0,26,0.00,,,0.00,Wunderground v.1.15,2013-07-02 23:29:00,
2013-07-02 16:34:00,105.9,65.0,29.90,SE,146,1.0,6.0,27,0.00,,,0.00,Wunderground v.1.15,2013-07-02 23:34:00,
2013-07-02 16:39:00,104.3,64.7,29.90,NE,44,5.0,9.0,28,0.00,,,0.00,Wunderground v.1.15,2013-07-02 23:39:00,
2013-07-02 16:44:00,103.8,65.3,29.90,ENE,72,1.0,7.0,29,0.00,,,0.00,Wunderground v.1.15,2013-07-02 23:44:00,
2013-07-02 16:50:00,103.2,64.8,29.90,SSE,158,2.0,3.0,29,0.00,,,0.00,Wunderground v.1.15,2013-07-02 23:50:00,
2013-07-02 16:54:00,102.6,64.3,29.90,SE,130,1.0,5.0,29,0.00,,,0.00,Wunderground v.1.15,2013-07-02 23:54:00,
2013-07-02 16:59:00,102.3,65.0,29.90,ESE,117,4.0,6.0,30,0.00,,,0.00,Wunderground v.1.15,2013-07-02 23:59:00,
2013-07-02 17:01:00,102.2,63.9,29.91,ENE,67,3.0,7.0,29,0.00,,,0.00,Wunderground v.1.15,2013-07-03 00:01:00,
2013-07-02 17:06:00,101.7,64.5,29.90,ESE,118,3.0,7.0,30,0.00,,,0.00,Wunderground v.1.15,2013-07-03 00:06:00,
2013-07-02 17:11:00,101.5,64.3,29.91,East,88,3.0,4.0,30,0.00,,,0.00,Wunderground v.1.15,2013-07-03 00:11:00,
2013-07-02 17:16:00,101.1,63.0,29.90,ENE,77,3.0,5.0,29,0.00,,,0.00,Wunderground v.1.15,2013-07-03 00:16:00,
2013-07-02 17:21:00,100.9,63.8,29.90,ENE,77,2.0,3.0,30,0.00,,,0.00,Wunderground v.1.15,2013-07-03 00:21:00,
2013-07-02 17:23:00,100.8,63.7,29.90,SE,131,1.0,3.0,30,0.00,,,0.00,Wunderground v.1.15,2013-07-03 00:23:00,
2013-07-02 17:25:00,100.6,62.6,29.90,East,94,0.0,5.0,29,0.00,,,0.00,Wunderground v.1.15,2013-07-03 00:25:00,
2013-07-02 17:28:00,100.3,63.3,29.90,ESE,109,1.0,5.0,30,0.00,,,0.00,Wunderground v.1.15,2013-07-03 00:28:00,
2013-07-02 17:33:00,100.4,63.3,29.90,East,93,1.0,3.0,30,0.00,,,0.00,Wunderground v.1.15,2013-07-03 00:33:00,
2013-07-02 17:38:00,99.9,62.9,29.90,East,100,2.0,5.0,30,0.00,,,0.00,Wunderground v.1.15,2013-07-03 00:38:00,
2013-07-02 17:43:00,99.4,63.4,29.90,SE,146,1.0,2.0,31,0.00,,,0.00,Wunderground v.1.15,2013-07-03 00:43:00,
2013-07-02 17:48:00,99.4,63.4,29.90,SSE,148,1.0,2.0,31,0.00,,,0.00,Wunderground v.1.15,2013-07-03 00:48:00,
2013-07-02 17:53:00,99.3,63.3,29.90,SE,130,0.0,3.0,31,0.00,,,0.00,Wunderground v.1.15,2013-07-03 00:53:00,
2013-07-02 17:58:00,99.2,63.3,29.90,East,100,0.0,3.0,31,0.00,,,0.00,Wunderground v.1.15,2013-07-03 00:58:00,
2013-07-02 18:00:00,99.1,63.2,29.91,SSE,150,0.0,1.0,31,0.00,,,0.00,Wunderground v.1.15,2013-07-03 01:00:00,
2013-07-02 18:03:00,98.8,62.9,29.91,ESE,106,0.0,3.0,31,0.00,,,0.00,Wunderground v.1.15,2013-07-03 01:03:00,
2013-07-02 18:08:00,98.6,63.6,29.91,SE,138,2.0,3.0,32,0.00,,,0.00,Wunderground v.1.15,2013-07-03 01:08:00,
2013-07-02 18:09:00,98.6,62.7,29.91,East,82,2.0,3.0,31,0.00,,,0.00,Wunderground v.1.15,2013-07-03 01:09:00,
2013-07-02 18:14:00,97.7,62.0,29.91,SW,225,0.0,4.0,31,0.00,,,0.00,Wunderground v.1.15,2013-07-03 01:14:00,
2013-07-02 18:19:00,97.3,62.5,29.91,SSW,198,0.0,4.0,32,0.00,,,0.00,Wunderground v.1.15,2013-07-03 01:19:00,
2013-07-02 18:24:00,96.9,62.2,29.91,SE,139,0.0,2.0,32,0.00,,,0.00,Wunderground v.1.15,2013-07-03 01:24:00,
2013-07-02 18:26:00,96.7,62.0,29.91,ESE,115,0.0,2.0,32,0.00,,,0.00,Wunderground v.1.15,2013-07-03 01:26:00,
2013-07-02 18:32:00,95.9,62.2,29.91,East,101,0.0,1.0,33,0.00,,,0.00,Wunderground v.1.15,2013-07-03 01:32:00,
2013-07-02 18:37:00,95.3,62.5,29.91,East,82,1.0,3.0,34,0.00,,,0.00,Wunderground v.1.15,2013-07-03 01:37:00,
2013-07-02 18:42:00,94.5,62.6,29.91,East,79,1.0,3.0,35,0.00,,,0.00,Wunderground v.1.15,2013-07-03 01:42:00,
2013-07-02 18:47:00,94.1,62.3,29.91,ENE,63,3.0,4.0,35,0.00,,,0.00,Wunderground v.1.15,2013-07-03 01:47:00,
2013-07-02 18:50:00,93.5,62.5,29.91,NNE,27,1.0,1.0,36,0.00,,,0.00,Wunderground v.1.15,2013-07-03 01:50:00,
2013-07-02 18:51:00,93.5,62.5,29.91,NE,49,1.0,1.0,36,0.00,,,0.00,Wunderground v.1.15,2013-07-03 01:51:00,
2013-07-02 18:56:00,92.7,61.8,29.92,ENE,75,2.0,4.0,36,0.00,,,0.00,Wunderground v.1.15,2013-07-03 01:56:00,
2013-07-02 19:01:00,92.3,62.3,29.92,ESE,108,0.0,2.0,37,0.00,,,0.00,Wunderground v.1.15,2013-07-03 02:01:00,
2013-07-02 19:06:00,92.0,62.0,29.92,ESE,122,0.0,2.0,37,0.00,,,0.00,Wunderground v.1.15,2013-07-03 02:06:00,
2013-07-02 19:12:00,91.8,61.8,29.92,ENE,61,2.0,2.0,37,0.00,,,0.00,Wunderground v.1.15,2013-07-03 02:12:00,
2013-07-02 19:17:00,91.5,62.3,29.92,NE,54,1.0,2.0,38,0.00,,,0.00,Wunderground v.1.15,2013-07-03 02:17:00,
2013-07-02 19:22:00,91.2,62.0,29.92,ESE,104,0.0,1.0,38,0.00,,,0.00,Wunderground v.1.15,2013-07-03 02:22:00,
2013-07-02 19:27:00,90.9,62.5,29.92,ENE,63,2.0,2.0,39,0.00,,,0.00,Wunderground v.1.15,2013-07-03 02:27:00,
2013-07-02 19:32:00,90.5,62.2,29.92,ENE,74,2.0,2.0,39,0.00,,,0.00,Wunderground v.1.15,2013-07-03 02:32:00,
2013-07-02 19:38:00,90.0,62.4,29.92,NNE,33,1.0,2.0,40,0.00,,,0.00,Wunderground v.1.15,2013-07-03 02:38:00,
2013-07-02 19:43:00,89.8,62.3,29.92,East,84,0.0,1.0,40,0.00,,,0.00,Wunderground v.1.15,2013-07-03 02:43:00,
2013-07-02 19:46:00,89.6,62.1,29.92,NE,53,0.0,1.0,40,0.00,,,0.00,Wunderground v.1.15,2013-07-03 02:46:00,
2013-07-02 19:51:00,89.3,61.8,29.92,East,97,1.0,1.0,40,0.00,,,0.00,Wunderground v.1.15,2013-07-03 02:51:00,
2013-07-02 19:56:00,88.7,62.0,29.92,ENE,77,0.0,3.0,41,0.00,,,0.00,Wunderground v.1.15,2013-07-03 02:56:00,
2013-07-02 20:01:00,88.3,61.6,29.92,WNW,300,1.0,2.0,41,0.00,,,0.00,Wunderground v.1.15,2013-07-03 03:01:00,
2013-07-02 20:02:00,88.3,61.6,29.92,WNW,301,1.0,2.0,41,0.00,,,0.00,Wunderground v.1.15,2013-07-03 03:02:00,
2013-07-02 20:07:00,87.7,61.8,29.92,NNE,26,0.0,2.0,42,0.00,,,0.00,Wunderground v.1.15,2013-07-03 03:07:00,
2013-07-02 20:13:00,87.4,61.5,29.92,NNW,327,1.0,1.0,42,0.00,,,0.00,Wunderground v.1.15,2013-07-03 03:13:00,
2013-07-02 20:18:00,87.0,61.8,29.92,NW,318,2.0,2.0,43,0.00,,,0.00,Wunderground v.1.15,2013-07-03 03:18:00,
2013-07-02 20:20:00,86.9,61.0,29.92,NW,307,1.0,1.0,42,0.00,,,0.00,Wunderground v.1.15,2013-07-03 03:20:00,
2013-07-02 20:25:00,86.4,61.3,29.92,WNW,296,1.0,2.0,43,0.00,,,0.00,Wunderground v.1.15,2013-07-03 03:25:00,
2013-07-02 20:30:00,86.0,60.9,29.92,WNW,293,0.0,1.0,43,0.00,,,0.00,Wunderground v.1.15,2013-07-03 03:30:00,
2013-07-02 20:35:00,85.7,61.3,29.92,WNW,292,0.0,1.0,44,0.00,,,0.00,Wunderground v.1.15,2013-07-03 03:35:00,
2013-07-02 20:40:00,85.2,61.5,29.92,WNW,293,0.0,0.0,45,0.00,,,0.00,Wunderground v.1.15,2013-07-03 03:40:00,
2013-07-02 20:45:00,84.7,61.0,29.92,WNW,293,0.0,0.0,45,0.00,,,0.00,Wunderground v.1.15,2013-07-03 03:45:00,
2013-07-02 20:49:00,84.3,61.3,29.92,WNW,293,0.0,1.0,46,0.00,,,0.00,Wunderground v.1.15,2013-07-03 03:49:00,
2013-07-02 20:54:00,84.0,61.0,29.92,WNW,293,0.0,0.0,46,0.00,,,0.00,Wunderground v.1.15,2013-07-03 03:54:00,
2013-07-02 20:59:00,83.5,61.1,29.92,WNW,292,0.0,0.0,47,0.00,,,0.00,Wunderground v.1.15,2013-07-03 03:59:00,
2013-07-02 21:00:00,83.5,61.1,29.92,WNW,292,0.0,0.0,47,0.00,,,0.00,Wunderground v.1.15,2013-07-03 04:00:00,
2013-07-02 21:01:00,83.4,61.1,29.92,WNW,293,0.0,1.0,47,0.00,,,0.00,Wunderground v.1.15,2013-07-03 04:01:00,
2013-07-02 21:02:00,83.3,61.0,29.92,WNW,292,0.0,1.0,47,0.00,,,0.00,Wunderground v.1.15,2013-07-03 04:02:00,
2013-07-02 21:03:00,83.3,61.0,29.92,WNW,292,1.0,1.0,47,0.00,,,0.00,Wunderground v.1.15,2013-07-03 04:03:00,
2013-07-02 21:04:00,83.2,60.9,29.92,WNW,294,0.0,1.0,47,0.00,,,0.00,Wunderground v.1.15,2013-07-03 04:04:00,
2013-07-02 21:09:00,83.0,60.7,29.92,WNW,294,0.0,1.0,47,0.00,,,0.00,Wunderground v.1.15,2013-07-03 04:09:00,
2013-07-02 21:14:00,82.6,60.9,29.92,WNW,294,0.0,1.0,48,0.00,,,0.00,Wunderground v.1.15,2013-07-03 04:14:00,
2013-07-02 21:19:00,82.4,60.1,29.93,West,274,0.0,2.0,47,0.00,,,0.00,Wunderground v.1.15,2013-07-03 04:19:00,
2013-07-02 21:24:00,82.3,60.1,29.93,West,274,0.0,0.0,47,0.00,,,0.00,Wunderground v.1.15,2013-07-03 04:24:00,
2013-07-02 21:29:00,82.0,60.4,29.93,West,274,0.0,0.0,48,0.00,,,0.00,Wunderground v.1.15,2013-07-03 04:29:00,
2013-07-02 21:31:00,81.8,60.2,29.93,West,274,0.0,0.0,48,0.00,,,0.00,Wunderground v.1.15,2013-07-03 04:31:00,
2013-07-02 21:32:00,81.8,60.2,29.93,West,274,0.0,0.0,48,0.00,,,0.00,Wunderground v.1.15,2013-07-03 04:32:00,
2013-07-02 21:37:00,81.7,60.1,29.93,West,274,0.0,0.0,48,0.00,,,0.00,Wunderground v.1.15,2013-07-03 04:37:00,
2013-07-02 21:42:00,81.5,59.9,29.94,West,274,0.0,0.0,48,0.00,,,0.00,Wunderground v.1.15,2013-07-03 04:42:00,
2013-07-02 21:45:00,81.1,60.1,29.94,West,274,0.0,0.0,49,0.00,,,0.00,Wunderground v.1.15,2013-07-03 04:45:00,
2013-07-02 21:46:00,81.0,60.0,29.94,West,274,0.0,0.0,49,0.00,,,0.00,Wunderground v.1.15,2013-07-03 04:46:00,
2013-07-02 21:51:00,80.7,59.8,29.94,WNW,302,1.0,2.0,49,0.00,,,0.00,Wunderground v.1.15,2013-07-03 04:51:00,
2013-07-02 21:53:00,80.7,59.8,29.94,NNW,340,1.0,2.0,49,0.00,,,0.00,Wunderground v.1.15,2013-07-03 04:53:00,
2013-07-02 21:58:00,80.7,59.8,29.94,NW,304,0.0,2.0,49,0.00,,,0.00,Wunderground v.1.15,2013-07-03 04:58:00,
2013-07-02 22:03:00,80.4,59.5,29.94,WNW,300,0.0,1.0,49,0.00,,,0.00,Wunderground v.1.15,2013-07-03 05:03:00,
2013-07-02 22:07:00,80.1,59.2,29.94,WNW,300,0.0,1.0,49,0.00,,,0.00,Wunderground v.1.15,2013-07-03 05:07:00,
2013-07-02 22:12:00,79.9,59.6,29.94,WNW,300,0.0,0.0,50,0.00,,,0.00,Wunderground v.1.15,2013-07-03 05:12:00,
2013-07-02 22:17:00,79.6,59.3,29.94,WNW,300,0.0,1.0,50,0.00,,,0.00,Wunderground v.1.15,2013-07-03 05:17:00,
2013-07-02 22:19:00,79.6,59.3,29.94,WNW,300,0.0,1.0,50,0.00,,,0.00,Wunderground v.1.15,2013-07-03 05:19:00,
2013-07-02 22:24:00,79.5,59.8,29.95,WNW,300,0.0,1.0,51,0.00,,,0.00,Wunderground v.1.15,2013-07-03 05:24:00,
2013-07-02 22:29:00,79.2,59.5,29.95,WNW,301,0.0,1.0,51,0.00,,,0.00,Wunderground v.1.15,2013-07-03 05:29:00,
2013-07-02 22:34:00,79.0,59.3,29.95,WNW,300,0.0,0.0,51,0.00,,,0.00,Wunderground v.1.15,2013-07-03 05:34:00,
2013-07-02 22:39:00,78.9,59.2,29.95,WNW,301,0.0,0.0,51,0.00,,,0.00,Wunderground v.1.15,2013-07-03 05:39:00,
2013-07-02 22:44:00,78.5,58.9,29.95,WNW,301,0.0,0.0,51,0.00,,,0.00,Wunderground v.1.15,2013-07-03 05:44:00,
2013-07-02 22:49:00,77.9,58.9,29.95,WNW,301,0.0,0.0,52,0.00,,,0.00,Wunderground v.1.15,2013-07-03 05:49:00,
2013-07-02 22:54:00,77.7,58.7,29.95,WNW,300,0.0,0.0,52,0.00,,,0.00,Wunderground v.1.15,2013-07-03 05:54:00,
2013-07-02 22:58:00,77.6,58.6,29.95,WNW,301,0.0,0.0,52,0.00,,,0.00,Wunderground v.1.15,2013-07-03 05:58:00,
2013-07-02 23:02:00,77.4,58.9,29.95,WNW,301,0.0,0.0,53,0.00,,,0.00,Wunderground v.1.15,2013-07-03 06:02:00,
2013-07-02 23:07:00,77.1,58.6,29.95,WNW,300,0.0,0.0,53,0.00,,,0.00,Wunderground v.1.15,2013-07-03 06:07:00,
2013-07-02 23:12:00,76.7,58.8,29.95,WNW,301,0.0,0.0,54,0.00,,,0.00,Wunderground v.1.15,2013-07-03 06:12:00,
2013-07-02 23:13:00,76.7,58.8,29.95,WNW,301,0.0,0.0,54,0.00,,,0.00,Wunderground v.1.15,2013-07-03 06:13:00,
2013-07-02 23:16:00,76.5,59.1,29.95,WNW,300,0.0,0.0,55,0.00,,,0.00,Wunderground v.1.15,2013-07-03 06:16:00,
2013-07-02 23:17:00,76.4,59.0,29.95,WNW,301,0.0,0.0,55,0.00,,,0.00,Wunderground v.1.15,2013-07-03 06:17:00,
2013-07-02 23:22:00,76.2,59.4,29.95,WNW,300,0.0,0.0,56,0.00,,,0.00,Wunderground v.1.15,2013-07-03 06:22:00,
2013-07-02 23:24:00,76.2,59.4,29.95,WNW,300,0.0,0.0,56,0.00,,,0.00,Wunderground v.1.15,2013-07-03 06:24:00,
2013-07-02 23:26:00,76.1,59.3,29.95,WNW,300,0.0,0.0,56,0.00,,,0.00,Wunderground v.1.15,2013-07-03 06:26:00,
2013-07-02 23:31:00,75.9,59.6,29.95,WNW,300,0.0,0.0,57,0.00,,,0.00,Wunderground v.1.15,2013-07-03 06:31:00,
2013-07-02 23:34:00,75.8,59.5,29.95,WNW,300,0.0,0.0,57,0.00,,,0.00,Wunderground v.1.15,2013-07-03 06:34:00,
2013-07-02 23:39:00,75.7,59.4,29.95,WNW,301,0.0,0.0,57,0.00,,,0.00,Wunderground v.1.15,2013-07-03 06:39:00,
2013-07-02 23:43:00,75.6,59.3,29.95,WNW,300,0.0,0.0,57,0.00,,,0.00,Wunderground v.1.15,2013-07-03 06:43:00,
2013-07-02 23:50:00,75.2,59.4,29.95,WNW,301,0.0,0.0,58,0.00,,,0.00,Wunderground v.1.15,2013-07-03 06:50:00,
2013-07-02 23:55:00,75.0,59.2,29.94,WNW,300,0.0,0.0,58,0.00,,,0.00,Wunderground v.1.15,2013-07-03 06:55:00,